When you browse on this site, cookies collect data to enhance your experience and personalize the content and advertising you see.
Visit our Privacy Policy to learn more. By continuing to use the site, you agree to this use of cookies and data.
  • en France
  • Liste des pays
  • À 7 jours
  • Température de l'eau
  • Carte satellitaire
  • Carte météo
  • Widgets météo
  • user-avatar
    Se connecter

    Météo par heure à Tamalé

    Ce jour, 22 Juillet, Lundi

    Heure Température Précipitation Vent Pression Humidité
    00:00 +24°C° 0 mm 1 m/s 743 mmHg 95%
    01:00 +24°C° 0 mm 1 m/s 743 mmHg 96%
    02:00 +24°C° 0 mm 1 m/s 743 mmHg 97%
    03:00 +24°C° 0 mm 1 m/s 743 mmHg 97%
    04:00 +24°C° 0 mm 1 m/s 743 mmHg 97%
    05:00 +24°C° 0 mm 1 m/s 743 mmHg 97%
    06:00 +24°C° 0 mm 1 m/s 743 mmHg 97%
    07:00 +25°C° 0 mm 2 m/s 744 mmHg 91%
    08:00 +27°C° 0 mm 2 m/s 744 mmHg 85%
    09:00 +28°C° 0 mm 3 m/s 744 mmHg 78%
    10:00 +29°C° 0.1 mm 3 m/s 744 mmHg 73%
    11:00 +31°C° 0.1 mm 3 m/s 744 mmHg 68%
    12:00 +33°C° 0.1 mm 3 m/s 744 mmHg 63%
    13:00 +32°C° 0.1 mm 2 m/s 743 mmHg 62%
    14:00 +32°C° 0.1 mm 2 m/s 742 mmHg 62%
    15:00 +32°C° 0.1 mm 2 m/s 741 mmHg 61%
    16:00 +31°C° 0 mm 2 m/s 741 mmHg 66%
    17:00 +30°C° 0 mm 1 m/s 741 mmHg 72%
    18:00 +29°C° 0 mm 1 m/s 741 mmHg 77%
    19:00 +28°C° 0.4 mm 1 m/s 742 mmHg 79%
    20:00 +28°C° 0.4 mm 2 m/s 742 mmHg 80%
    21:00 +27°C° 0.4 mm 2 m/s 742 mmHg 82%
    22:00 +27°C° 0.6 mm 2 m/s 742 mmHg 84%
    23:00 +26°C° 0.6 mm 2 m/s 742 mmHg 87%

    Demain, 23 Juillet, Mardi

    Heure Température Précipitation Vent Pression Humidité
    00:00 +26°C° 0.6 mm 2 m/s 742 mmHg 89%
    01:00 +25°C° 1.8 mm 2 m/s 742 mmHg 91%
    02:00 +25°C° 1.8 mm 2 m/s 742 mmHg 94%
    03:00 +25°C° 1.8 mm 3 m/s 742 mmHg 96%
    04:00 +25°C° 4.6 mm 2 m/s 742 mmHg 97%
    05:00 +24°C° 4.6 mm 2 m/s 742 mmHg 97%
    06:00 +24°C° 4.6 mm 1 m/s 743 mmHg 98%
    07:00 +24°C° 16.7 mm 2 m/s 743 mmHg 98%
    08:00 +24°C° 16.7 mm 3 m/s 743 mmHg 98%
    09:00 +24°C° 16.7 mm 3 m/s 744 mmHg 98%
    10:00 +24°C° 6.7 mm 3 m/s 744 mmHg 98%
    11:00 +24°C° 6.7 mm 3 m/s 744 mmHg 97%
    12:00 +24°C° 6.7 mm 3 m/s 744 mmHg 97%
    13:00 +24°C° 0.9 mm 3 m/s 743 mmHg 96%
    14:00 +24°C° 0.9 mm 3 m/s 743 mmHg 96%
    15:00 +24°C° 0.9 mm 2 m/s 742 mmHg 95%
    16:00 +25°C° 0 mm 2 m/s 742 mmHg 95%
    17:00 +25°C° 0 mm 1 m/s 742 mmHg 95%
    18:00 +23°C° 0 mm 0 m/s 742 mmHg 95%
    19:00 +24°C° 0 mm 1 m/s 743 mmHg 95%
    20:00 +24°C° 0 mm 1 m/s 743 mmHg 95%
    21:00 +24°C° 0 mm 1 m/s 743 mmHg 96%
    22:00 +24°C° 0 mm 1 m/s 743 mmHg 95%
    23:00 +24°C° 0 mm 1 m/s 743 mmHg 95%

    Après-demain, 24 Juillet, Mercredi

    Heure Température Précipitation Vent Pression Humidité
    00:00 +24°C° 0 mm 1 m/s 743 mmHg 95%
    01:00 +24°C° 0 mm 1 m/s 743 mmHg 95%
    02:00 +24°C° 0 mm 1 m/s 743 mmHg 95%
    03:00 +24°C° 0 mm 1 m/s 742 mmHg 95%
    04:00 +24°C° 0.1 mm 1 m/s 743 mmHg 95%
    05:00 +24°C° 0.1 mm 1 m/s 743 mmHg 95%
    06:00 +24°C° 0.1 mm 1 m/s 744 mmHg 96%
    07:00 +24°C° 0.1 mm 2 m/s 744 mmHg 94%
    08:00 +25°C° 0.1 mm 2 m/s 745 mmHg 92%
    09:00 +25°C° 0.1 mm 3 m/s 745 mmHg 90%
    10:00 +26°C° 0.4 mm 3 m/s 745 mmHg 88%
    11:00 +27°C° 0.4 mm 3 m/s 745 mmHg 86%
    12:00 +27°C° 0.4 mm 3 m/s 745 mmHg 85%
    13:00 +28°C° 0.6 mm 3 m/s 744 mmHg 82%
    14:00 +28°C° 0.6 mm 3 m/s 743 mmHg 80%
    15:00 +29°C° 0.6 mm 3 m/s 743 mmHg 77%
    16:00 +28°C° 0 mm 2 m/s 743 mmHg 80%
    17:00 +27°C° 0 mm 2 m/s 743 mmHg 84%
    18:00 +27°C° 0 mm 1 m/s 742 mmHg 87%
    19:00 +26°C° 0 mm 1 m/s 743 mmHg 89%
    20:00 +25°C° 0 mm 1 m/s 743 mmHg 90%
    21:00 +25°C° 0 mm 1 m/s 743 mmHg 92%
    22:00 +24°C° 0 mm 1 m/s 743 mmHg 93%
    23:00 +22°C° 0 mm 0 m/s 743 mmHg 94%

    25 Juillet, Jeudi

    Heure Température Précipitation Vent Pression Humidité
    00:00 +22°C° 0 mm 0 m/s 743 mmHg 95%
    01:00 +22°C° 0 mm 0 m/s 743 mmHg 96%
    02:00 +22°C° 0 mm 0 m/s 743 mmHg 96%
    03:00 +21°C° 0 mm 0 m/s 743 mmHg 96%
    04:00 +21°C° 0 mm 0 m/s 743 mmHg 97%
    05:00 +23°C° 0 mm 1 m/s 743 mmHg 97%
    06:00 +23°C° 0 mm 1 m/s 744 mmHg 97%
    07:00 +25°C° 0.3 mm 1 m/s 744 mmHg 92%
    08:00 +27°C° 0.3 mm 1 m/s 745 mmHg 87%
    09:00 +28°C° 0.3 mm 1 m/s 745 mmHg 81%
    10:00 +29°C° 0.1 mm 1 m/s 744 mmHg 77%
    11:00 +30°C° 0.1 mm 2 m/s 744 mmHg 72%
    12:00 +31°C° 0.1 mm 2 m/s 743 mmHg 67%
    13:00 +31°C° 0.3 mm 2 m/s 743 mmHg 69%
    14:00 +31°C° 0.3 mm 2 m/s 742 mmHg 70%
    15:00 +31°C° 0.3 mm 1 m/s 742 mmHg 71%
    16:00 +29°C° 0.6 mm 1 m/s 742 mmHg 77%
    17:00 +28°C° 0.6 mm 1 m/s 741 mmHg 83%
    18:00 +27°C° 0.6 mm 1 m/s 741 mmHg 89%
    19:00 +27°C° 0.1 mm 1 m/s 742 mmHg 90%
    20:00 +26°C° 0.1 mm 1 m/s 742 mmHg 92%
    21:00 +26°C° 0.1 mm 1 m/s 743 mmHg 93%
    22:00 +25°C° 0 mm 1 m/s 743 mmHg 94%
    23:00 +25°C° 0 mm 1 m/s 743 mmHg 95%

    26 Juillet, Vendredi

    Heure Température Précipitation Vent Pression Humidité
    00:00 +25°C° 0 mm 1 m/s 743 mmHg 96%
    01:00 +25°C° 1.1 mm 1 m/s 743 mmHg 96%
    02:00 +25°C° 1.1 mm 1 m/s 742 mmHg 97%
    03:00 +25°C° 1.1 mm 1 m/s 742 mmHg 97%
    04:00 +24°C° 0.8 mm 1 m/s 743 mmHg 97%
    05:00 +24°C° 0.8 mm 1 m/s 743 mmHg 97%
    06:00 +24°C° 0.8 mm 1 m/s 743 mmHg 97%
    07:00 +25°C° 0.4 mm 2 m/s 744 mmHg 95%
    08:00 +26°C° 0.4 mm 2 m/s 744 mmHg 92%
    09:00 +27°C° 0.4 mm 3 m/s 745 mmHg 90%
    10:00 +27°C° 1.1 mm 3 m/s 744 mmHg 88%
    11:00 +28°C° 1.1 mm 3 m/s 744 mmHg 86%
    12:00 +29°C° 1.1 mm 3 m/s 744 mmHg 84%
    13:00 +29°C° 2.1 mm 2 m/s 743 mmHg 85%
    14:00 +29°C° 2.1 mm 2 m/s 742 mmHg 85%
    15:00 +29°C° 2.1 mm 2 m/s 742 mmHg 85%
    16:00 +28°C° 0.7 mm 2 m/s 742 mmHg 88%
    17:00 +27°C° 0.7 mm 1 m/s 742 mmHg 90%
    18:00 +27°C° 0.7 mm 1 m/s 741 mmHg 93%
    19:00 +26°C° 0 mm 1 m/s 742 mmHg 94%
    20:00 +25°C° 0 mm 1 m/s 742 mmHg 95%
    21:00 +25°C° 0 mm 1 m/s 743 mmHg 97%
    22:00 +25°C° 0 mm 1 m/s 743 mmHg 97%
    23:00 +24°C° 0 mm 1 m/s 743 mmHg 97%

    27 Juillet, Samedi

    Heure Température Précipitation Vent Pression Humidité
    00:00 +24°C° 0 mm 1 m/s 743 mmHg 97%
    01:00 +24°C° 0.1 mm 1 m/s 743 mmHg 98%
    02:00 +24°C° 0.1 mm 1 m/s 743 mmHg 98%
    03:00 +24°C° 0.1 mm 1 m/s 743 mmHg 98%
    04:00 +24°C° 0.2 mm 1 m/s 743 mmHg 97%
    05:00 +24°C° 0.2 mm 1 m/s 744 mmHg 97%
    06:00 +24°C° 0.2 mm 1 m/s 744 mmHg 97%
    07:00 +25°C° 0.1 mm 2 m/s 744 mmHg 94%
    08:00 +26°C° 0.1 mm 3 m/s 745 mmHg 91%
    09:00 +26°C° 0.1 mm 3 m/s 745 mmHg 88%
    10:00 +27°C° 0.3 mm 3 m/s 745 mmHg 86%
    11:00 +28°C° 0.3 mm 3 m/s 744 mmHg 83%
    12:00 +28°C° 0.3 mm 3 m/s 744 mmHg 80%
    13:00 +29°C° 0.2 mm 3 m/s 743 mmHg 78%
    14:00 +29°C° 0.2 mm 3 m/s 743 mmHg 76%
    15:00 +30°C° 0.2 mm 3 m/s 742 mmHg 74%
    16:00 +29°C° 0 mm 2 m/s 742 mmHg 78%
    17:00 +28°C° 0 mm 2 m/s 742 mmHg 82%
    18:00 +27°C° 0 mm 2 m/s 742 mmHg 86%
    19:00 +27°C° 0 mm 1 m/s 742 mmHg 88%
    20:00 +26°C° 0 mm 1 m/s 742 mmHg 89%
    21:00 +25°C° 0 mm 1 m/s 743 mmHg 91%
    22:00 +25°C° 0 mm 1 m/s 743 mmHg 92%
    23:00 +25°C° 0 mm 1 m/s 743 mmHg 93%
    Voir plus